Location: Brabourne
(51.1333°N, 1.0000°E)
Time: 12:30:02
(UTC+00:00)

ADEOS Rocket - Pass Details

Date: 23 October 2021
Orbit: 858 x 1307 km, 98.8° (Epoch: 26 November)

Event Time Altitude Azimuth Distance (km) Brightness Sun altitude
Exits shadow 22:13:16 11° 29° (NNE) 3,057 5.8 -46.8°
Drops below altitude 10° 22:14:24 10° 20° (NNE) 3,131 5.9 -46.9°
Sets 22:19:05 0° 351° (N) 3,992 6.8 -47.3°
